[[{"header":{"parameterUnit":"m.s-1","parameterCategory":1,"la1":30.2991,"la2":30.254,"lo1":-89.0895,"lo2":-89.0444,"dy":0.0017,"dx":0.0017,"nx":28,"ny":28,"refTime":"2024-06-01T03:00:00:Z","depth":0,"parameterNumber":2,"parameterNumberName":"U-component_of_WINDS"},"data":[0,0,0,0,0,0,0,0,0,0,0,0,0,0,0,0,0,0,0,0,0,0,0,0,0,0,0,0,0,0,0,0,0,0,0,0,0,0,0,0,0,0,0,0,0,0,0,0,0,0,0,0,0,0,0,0,0,0,-3.5567,-3.557,0,-3.5912,-3.5916,-3.592,-3.6091,-3.6091,-3.6091,-3.6091,-3.645,-3.646,-3.6469,0,0,0,0,0,0,0,0,0,0,0,0,0,-3.5061,-3.5069,-3.5566,-3.5571,-3.5575,-3.5911,-3.5916,-3.5921,-3.6091,-3.6091,-3.6091,-3.6091,-3.6447,-3.6459,-3.647,0,0,0,0,0,0,0,0,0,0,0,0,0,-3.533,-3.5072,-3.5566,-3.57,-3.5716,-3.591,-3.5916,-3.5922,-3.6091,-3.6091,-3.6091,-3.6091,-3.6444,-3.6457,-3.6472,-3.656,0,0,-3.6516,-3.6522,0,0,0,0,0,0,0,0,-3.5315,-3.5349,-3.5676,-3.5691,-3.5709,-3.5958,-3.587,-3.6136,-3.6091,-3.5949,-3.6091,-3.6091,-3.6287,-3.6314,-3.6379,-3.6577,-3.6593,-3.6517,-3.6526,-3.6532,-3.6536,0,0,0,0,0,0,0,-3.5296,-3.5335,-3.5703,-3.5681,-3.5701,-3.5746,-3.5784,-3.5921,-3.6114,-3.5961,-3.5974,-3.6012,-3.6296,-3.6365,-3.6389,-3.6598,-3.6516,-3.6529,-3.6538,-3.6544,-3.6889,-3.689,0,0,0,0,0,0,-3.5255,-3.5318,-3.5692,-3.5714,-3.5508,-3.5755,-3.5798,-3.5878,-3.6113,-3.6148,-3.6012,-3.6019,-3.634,-3.6372,-3.6402,-3.6524,-3.6532,-3.6545,-3.6553,-3.6888,-3.6889,-3.689,0,0,0,0,0,0,-3.5243,-3.5286,-3.5678,-3.552,-3.5573,-3.5763,-3.5853,-3.5885,-3.5954,-3.6151,-3.6187,-3.6047,-3.6342,-3.6382,-3.652,-3.6538,-3.6552,-3.6565,-3.6888,-3.6889,-3.6889,-3.6764,0,0,0,0,0,0,-3.5228,-3.5281,-3.5315,-3.5519,-3.5581,-3.5788,-3.5854,-3.5892,-3.5978,-3.599,-3.6193,-3.6227,-3.6345,-3.6498,-3.6534,-3.6558,-3.6576,-3.6887,-3.6888,-3.6889,-3.6768,-3.6761,-3.6755,0,0,0,0,0,-3.5209,-3.5267,-3.5316,-3.536,-3.5627,-3.5788,-3.5824,-3.5957,-3.5978,-3.6016,-3.6143,-3.6221,-3.653,-3.651,-3.6553,-3.6581,-3.6887,-3.6888,-3.6889,-3.6771,-3.6762,-3.6755,0,0,0,0,0,0,-3.5063,-3.5296,-3.5353,-3.5478,-3.5612,-3.5817,-3.5868,-3.5943,-3.6075,-3.6082,-3.6243,-3.6287,-3.6411,-3.6511,-3.6484,-3.6681,-3.6716,-3.6726,-3.6611,-3.6605,-3.6599,-3.6573,-3.6588,0,0,0,0,0,-3.5044,-3.5153,-3.5353,-3.5444,-3.5508,-3.5676,-3.5751,-3.5842,-3.5988,-3.6046,-3.6183,-3.6323,-3.6453,-3.6534,-3.6664,-3.6783,-3.6831,-3.6824,-3.6817,-3.6811,-3.6818,-3.689,-3.689,-3.6894,-3.6894,-3.6894,0,0,-3.5009,-3.515,-3.521,-3.5419,-3.5533,-3.5645,-3.5722,-3.5837,-3.5923,-3.6064,-3.6202,-3.6308,-3.6475,-3.6604,-3.6668,-3.6691,-3.6827,-3.6812,-3.6806,-3.6817,-3.6892,-3.6891,-3.6891,-3.6895,-3.6895,-3.6894,0,0,-3.5001,-3.5118,-3.5207,-3.532,-3.5491,-3.5602,-3.5623,-3.5818,-3.5892,-3.6033,-3.6142,-3.6247,-3.6466,-3.6581,-3.6668,-3.6704,-3.6782,-3.6742,-3.6709,-3.6778,-3.6778,-3.6778,-3.6793,-3.6796,-3.6748,-3.6748,-3.6748,0,-3.4936,-3.5106,-3.5244,-3.5353,-3.5443,-3.5574,-3.5667,-3.5771,-3.5976,-3.6036,-3.6058,-3.6336,-3.6458,-3.6617,-3.6625,-3.6691,-3.6722,-3.672,-3.6766,-3.6768,-3.6771,-3.6787,-3.6792,-3.6742,-3.6743,-3.6744,-3.6744,0,-3.5019,-3.5135,-3.5187,-3.538,-3.5476,-3.5576,-3.5732,-3.5812,-3.5895,-3.6004,-3.6147,-3.6298,-3.6461,-3.6506,-3.6588,-3.6677,-3.6686,-3.6734,-3.6774,-3.6762,-3.678,-3.6787,-3.6734,-3.6736,-3.6738,-3.6739,0,0,-3.4929,-3.5196,-3.5213,-3.5303,-3.5501,-3.5596,-3.5703,-3.5861,-3.5928,-3.6065,-3.6161,-3.6343,-3.639,-3.6489,-3.6585,-3.6645,-3.6667,-3.6688,-3.6695,-3.668,-3.6777,-3.6739,-3.6743,-3.6719,-3.672,-3.6722,-3.6763,0,-3.495,-3.5145,-3.5273,-3.5419,-3.553,-3.5656,-3.575,-3.5884,-3.5989,-3.61,-3.6218,-3.6345,-3.6396,-3.6457,-3.6522,-3.665,-3.6688,-3.6649,-3.6812,-3.6816,-3.6767,-3.6753,-3.6713,-3.6745,-3.6771,-3.6772,-3.6773,0,-3.5,-3.5132,-3.5288,-3.5476,-3.5527,-3.5609,-3.5765,-3.5868,-3.6023,-3.6096,-3.6206,-3.6304,-3.6426,-3.6453,-3.6624,-3.6594,-3.6669,-3.6742,-3.6746,-3.6768,-3.6794,-3.6775,-3.6758,-3.6763,-3.6785,-3.6784,-3.6783,0,-3.492,-3.5137,-3.5259,-3.5332,-3.5553,-3.5608,-3.5703,-3.5858,-3.5945,-3.6082,-3.6141,-3.629,-3.6372,-3.6487,-3.6624,-3.6631,-3.6782,-3.682,-3.6848,-3.6844,-3.6875,-3.6871,-3.687,-3.692,-3.692,-3.692,-3.692,0,-3.4931,-3.5022,-3.5226,-3.5301,-3.5408,-3.5555,-3.5657,-3.5763,-3.59,-3.6,-3.6119,-3.6211,-3.6386,-3.65,-3.6608,-3.6734,-3.677,-3.6835,-3.6862,-3.6825,-3.6816,-3.6877,-3.6878,-3.6921,-3.6921,-3.6921,-3.692,0,-3.4859,-3.4999,-3.5141,-3.5338,-3.539,-3.546,-3.5631,-3.571,-3.5822,-3.5947,-3.5985,-3.6161,-3.6302,-3.6449,-3.6641,-3.6714,-3.6837,-3.6875,-3.6783,-3.6799,-3.6819,-3.6815,-3.6858,-3.6872,-3.6909,-3.6909,-3.6908,0,-3.4857,-3.493,-3.5135,-3.5209,-3.53,-3.5419,-3.5508,-3.5656,-3.5744,-3.5927,-3.5985,-3.6134,-3.6261,-3.648,-3.6627,-3.6775,-3.6819,-3.6823,-3.6842,-3.6802,-3.6821,-3.6815,-3.6824,-3.6817,-3.6816,-3.6815,-3.6814,0,-3.4839,-3.4905,-3.5027,-3.5174,-3.5276,-3.5399,-3.5528,-3.5582,-3.5757,-3.585,-3.5994,-3.6093,-3.6288,-3.6436,-3.6601,-3.6703,-3.6789,-3.6807,-3.6822,-3.6784,-3.6729,-3.6761,-3.6767,-3.6806,-3.6807,-3.6807,-3.6808,-3.6808,-3.4804,-3.4875,-3.5029,-3.5162,-3.5274,-3.5391,-3.5475,-3.5597,-3.5719,-3.5887,-3.5968,-3.6113,-3.6269,-3.65,-3.6599,-3.6717,-3.6742,-3.6762,-3.6768,-3.6771,-3.6762,-3.6708,-3.6748,-3.6748,-3.6749,-3.6749,-3.6749,0,-3.4793,-3.4898,-3.5019,-3.5193,-3.5298,-3.5367,-3.5513,-3.5597,-3.5722,-3.5859,-3.5981,-3.6148,-3.6292,-3.645,-3.6605,-3.6668,-3.6712,-3.6704,-3.6702,-3.6724,-3.673,-3.6703,-3.6667,-3.6667,-3.6667,-3.6667,-3.6667,-3.6667,-3.4799,-3.4923,-3.5007,-3.5189,-3.5296,-3.5436,-3.5513,-3.5624,-3.5734,-3.5913,-3.6033,-3.6134,-3.6281,-3.6447,-3.6583,-3.6627,-3.6679,-3.666,-3.6714,-3.6717,-3.6724,-3.673,-3.6705,-3.6669,-3.6669,-3.6699,-3.6699,-3.6699]},{"header":{"parameterUnit":"m.s-1","parameterCategory":1,"la1":30.2991,"la2":30.254,"lo1":-89.0895,"lo2":-89.0444,"dy":0.0017,"dx":0.0017,"nx":28,"ny":28,"refTime":"2024-06-01T03:00:00:Z","depth":0,"parameterNumber":3,"parameterNumberName":"V-component_of_WINDS"},"data":[0,0,0,0,0,0,0,0,0,0,0,0,0,0,0,0,0,0,0,0,0,0,0,0,0,0,0,0,0,0,0,0,0,0,0,0,0,0,0,0,0,0,0,0,0,0,0,0,0,0,0,0,0,0,0,0,0,0,3.7906,3.7909,0,3.8175,3.8178,3.8181,3.8284,3.8284,3.8283,3.8282,3.855,3.8557,3.8565,0,0,0,0,0,0,0,0,0,0,0,0,0,3.7474,3.7481,3.7906,3.7909,3.7913,3.8174,3.8178,3.8182,3.8285,3.8284,3.8283,3.8282,3.8547,3.8556,3.8566,0,0,0,0,0,0,0,0,0,0,0,0,0,3.7693,3.7483,3.7905,3.7996,3.8007,3.8173,3.8178,3.8182,3.8285,3.8284,3.8283,3.8282,3.8544,3.8555,3.8567,3.8661,0,0,3.8603,3.8608,0,0,0,0,0,0,0,0,3.7681,3.7709,3.7979,3.799,3.8002,3.8195,3.8124,3.8343,3.8285,3.8179,3.8282,3.8281,3.8432,3.8453,3.8506,3.8674,3.8685,3.8604,3.8611,3.8616,3.8619,0,0,0,0,0,0,0,3.7665,3.7698,3.8012,3.7983,3.7997,3.802,3.805,3.8166,3.8308,3.8188,3.8196,3.8227,3.8438,3.8494,3.8513,3.8689,3.8603,3.8614,3.8621,3.8626,3.8947,3.8948,0,0,0,0,0,0,3.7636,3.7685,3.8003,3.802,3.7836,3.8029,3.8062,3.8134,3.8307,3.8333,3.8228,3.8231,3.8475,3.8499,3.8522,3.8644,3.8616,3.8627,3.8634,3.8945,3.8947,3.8949,0,0,0,0,0,0,3.7627,3.7664,3.7993,3.7855,3.7899,3.8038,3.8117,3.814,3.8196,3.8337,3.8362,3.8259,3.8475,3.8506,3.8626,3.8654,3.8632,3.8643,3.8943,3.8946,3.8948,3.8887,0,0,0,0,0,0,3.7614,3.766,3.7699,3.7855,3.7905,3.8094,3.8119,3.8146,3.8217,3.8224,3.8374,3.8397,3.8476,3.8608,3.8638,3.867,3.8652,3.8942,3.8945,3.8947,3.8887,3.8887,3.8887,0,0,0,0,0,3.7598,3.767,3.7701,3.7738,3.7958,3.8096,3.8124,3.8216,3.8219,3.8258,3.8349,3.8392,3.8646,3.862,3.8654,3.869,3.894,3.8944,3.8947,3.8887,3.8887,3.8887,0,0,0,0,0,0,3.7511,3.7692,3.7728,3.7853,3.7959,3.8113,3.8166,3.8213,3.8318,3.832,3.8426,3.8459,3.857,3.8642,3.8609,3.879,3.8796,3.8806,3.8739,3.874,3.874,3.872,3.8662,0,0,0,0,0,3.7507,3.7606,3.7758,3.7853,3.7905,3.8026,3.8089,3.8151,3.8263,3.8308,3.8407,3.8512,3.8616,3.8682,3.8785,3.8898,3.8931,3.8939,3.8939,3.8938,3.8946,3.9009,3.9015,3.896,3.896,3.896,0,0,3.7498,3.7609,3.7665,3.7839,3.7928,3.8026,3.8063,3.8165,3.8238,3.8323,3.8443,3.8519,3.8643,3.876,3.8816,3.8823,3.8968,3.8943,3.8941,3.8949,3.9013,3.9018,3.9023,3.8962,3.8962,3.8961,0,0,3.7533,3.7628,3.7718,3.7806,3.7942,3.8022,3.8042,3.8191,3.8245,3.8368,3.8433,3.852,3.8696,3.8782,3.8849,3.8915,3.8958,3.8945,3.8944,3.9004,3.9009,3.9013,3.9036,3.9043,3.8952,3.8952,3.8952,0,3.7505,3.7659,3.7757,3.7857,3.793,3.8013,3.8103,3.8183,3.8343,3.8391,3.8397,3.862,3.8709,3.8847,3.8863,3.8914,3.894,3.8928,3.9001,3.9006,3.9011,3.9034,3.9042,3.8949,3.8949,3.895,3.895,0,3.7617,3.7721,3.7777,3.7933,3.8012,3.8106,3.8216,3.8284,3.8338,3.8416,3.8539,3.8649,3.8776,3.8813,3.8866,3.8957,3.8957,3.898,3.8989,3.9012,3.9035,3.9045,3.8946,3.8946,3.8947,3.8948,0,0,3.7605,3.7814,3.7833,3.7904,3.8058,3.814,3.8236,3.8362,3.8418,3.8525,3.8607,3.8754,3.8776,3.8852,3.8915,3.8968,3.9012,3.8985,3.8989,3.8985,3.9118,3.9099,3.9108,3.9041,3.9043,3.9045,3.9107,0,3.7661,3.784,3.7931,3.807,3.8167,3.8246,3.833,3.8431,3.8507,3.8597,3.8679,3.8782,3.8804,3.885,3.8906,3.8994,3.9039,3.8991,3.9117,3.912,3.9083,3.9121,3.9102,3.9155,3.9117,3.9119,3.912,0,3.775,3.7859,3.8008,3.815,3.8194,3.8268,3.839,3.8477,3.8593,3.8644,3.8727,3.8789,3.889,3.8891,3.9031,3.8996,3.9053,3.9103,3.9107,3.9123,3.9121,3.9136,3.9175,3.9182,3.9135,3.9134,3.9133,0,3.7726,3.7909,3.8022,3.8081,3.825,3.8299,3.8371,3.8487,3.8556,3.8662,3.8708,3.8822,3.8885,3.8971,3.9061,3.9054,3.9192,3.92,3.9235,3.9233,3.9261,3.9258,3.9309,3.9297,3.9297,3.9296,3.9296,0,3.7778,3.7866,3.8014,3.8083,3.8183,3.8285,3.838,3.8458,3.856,3.8643,3.8718,3.8794,3.8908,3.8998,3.9069,3.9173,3.9201,3.9243,3.9261,3.9237,3.9231,3.9275,3.9274,3.9299,3.9298,3.9298,3.9297,0,3.7769,3.7872,3.8,3.815,3.8189,3.8256,3.8383,3.8452,3.853,3.8635,3.8665,3.8787,3.8897,3.8995,3.914,3.9187,3.9293,3.9315,3.9255,3.9265,3.9294,3.9289,3.9375,3.9391,3.9367,3.9367,3.9367,0,3.7796,3.7866,3.8023,3.8086,3.8158,3.8257,3.8329,3.8431,3.8502,3.8639,3.869,3.8806,3.8904,3.9074,3.9174,3.9285,3.931,3.9332,3.9327,3.93,3.931,3.9305,3.9312,3.9331,3.9331,3.9331,3.933,0,3.7833,3.788,3.7982,3.8102,3.8186,3.8284,3.8384,3.843,3.855,3.8626,3.874,3.8816,3.8964,3.9077,3.9198,3.927,3.9319,3.9331,3.9345,3.9322,3.9284,3.9304,3.9253,3.9329,3.9329,3.9329,3.9329,3.9329,3.7843,3.7909,3.803,3.814,3.8227,3.8318,3.839,3.8478,3.8576,3.8706,3.8759,3.8875,3.8987,3.9156,3.9226,3.9316,3.9326,3.9346,3.9351,3.9355,3.935,3.9269,3.9339,3.9339,3.9339,3.9339,3.9339,0,3.7884,3.7965,3.8066,3.8205,3.8291,3.8332,3.8445,3.8514,3.8615,3.8717,3.8812,3.8942,3.9051,3.916,3.9274,3.9325,3.9351,3.9352,3.9349,3.9365,3.9335,3.9312,3.9329,3.9329,3.9329,3.9329,3.9329,3.9329,3.7915,3.8028,3.8089,3.8244,3.8325,3.8441,3.8501,3.8585,3.8667,3.8809,3.8902,3.8972,3.9076,3.9199,3.93,3.9329,3.9367,3.9362,3.9396,3.9367,3.9367,3.9367,3.9345,3.9369,3.9369,3.9419,3.9419,3.942]}]]